| time (UTC) | temp F | wind direction | speed MPH | gust MPH | rain 1hr in | rain 24hr in | rain mn in | humidity % | barometer mb |
| 20260509021555 | 53 | 0 | 0.0 | 0.0 | 0.00 | 0.01 | 0.01 | 73 | 1015.3 |
| 20260509021046 | 53 | 0 | 0.0 | 0.0 | 0.00 | 0.01 | 0.01 | 71 | 1015.3 |
| 20260509020545 | 53 | 0 | 0.0 | 0.0 | 0.00 | 0.01 | 0.01 | 71 | 1015.4 |
| 20260509020057 | 53 | 0 | 0.0 | 0.0 | 0.00 | 0.01 | 0.01 | 73 | 1015.3 |
| 20260509015546 | 54 | 0 | 0.0 | 0.0 | 0.00 | 0.01 | 0.01 | 74 | 1015.3 |
| 20260509015047 | 54 | 0 | 0.0 | 0.0 | 0.00 | 0.01 | 0.01 | 76 | 1015.2 |
| 20260509014554 | 54 | 0 | 0.0 | 0.0 | 0.00 | 0.01 | 0.01 | 75 | 1015.2 |
| 20260509014049 | 54 | 0 | 0.0 | 0.0 | 0.00 | 0.01 | 0.01 | 75 | 1015.3 |
| 20260509013548 | 54 | 0 | 0.0 | 0.0 | 0.00 | 0.01 | 0.01 | 74 | 1015.2 |
| 20260509013055 | 54 | 0 | 0.0 | 0.0 | 0.00 | 0.01 | 0.01 | 72 | 1015.2 |
| 20260509012548 | 54 | 0 | 0.0 | 0.0 | 0.00 | 0.01 | 0.01 | 74 | 1015.2 |
| 20260509012048 | 54 | 0 | 0.0 | 0.0 | 0.00 | 0.01 | 0.01 | 73 | 1015.1 |
| 20260509011556 | 54 | 0 | 0.0 | 0.0 | 0.00 | 0.01 | 0.01 | 71 | 1015.0 |
| 20260509011045 | 54 | 0 | 0.0 | 0.0 | 0.00 | 0.01 | 0.01 | 72 | 1015.0 |
| 20260509010545 | 54 | 0 | 0.0 | 0.0 | 0.00 | 0.01 | 0.01 | 74 | 1014.9 |
| 20260509010059 | 54 | 0 | 0.0 | 0.0 | 0.00 | 0.01 | 0.01 | 73 | 1014.9 |
| 20260509005546 | 54 | 0 | 0.0 | 0.0 | 0.00 | 0.01 | 0.01 | 71 | 1014.8 |
| 20260509005045 | 55 | 0 | 0.0 | 0.0 | 0.00 | 0.01 | 0.01 | 70 | 1014.9 |
| 20260509004602 | 55 | 0 | 0.0 | 0.0 | 0.00 | 0.01 | 0.01 | 69 | 1014.7 |
| 20260509004044 | 56 | 0 | 0.0 | 0.0 | 0.00 | 0.01 | 0.01 | 68 | 1014.9 |
| 20260509003545 | 56 | 0 | 0.0 | 0.0 | 0.00 | 0.01 | 0.01 | 65 | 1014.7 |
| 20260509003049 | 57 | 0 | 0.0 | 0.0 | 0.00 | 0.01 | 0.01 | 66 | 1014.7 |
| 20260509002546 | 57 | 0 | 0.0 | 0.0 | 0.00 | 0.01 | 0.01 | 64 | 1014.7 |
| 20260509002051 | 58 | 0 | 0.0 | 0.0 | 0.00 | 0.01 | 0.01 | 63 | 1014.6 |
| 20260509001551 | 58 | 0 | 0.0 | 0.0 | 0.00 | 0.01 | 0.01 | 64 | 1014.4 |
| 20260509001045 | 59 | 0 | 0.0 | 0.0 | 0.00 | 0.01 | 0.01 | 63 | 1014.4 |
| 20260509000547 | 59 | 0 | 0.0 | 0.0 | 0.00 | 0.01 | 0.01 | 61 | 1014.4 |
| 20260509000051 | 60 | 0 | 0.0 | 0.0 | 0.00 | 0.01 | 0.01 | 59 | 1014.4 |
| 20260508235547 | 60 | 0 | 0.0 | 0.0 | 0.00 | 0.01 | 0.01 | 60 | 1014.3 |
| 20260508235048 | 61 | 0 | 0.0 | 0.0 | 0.00 | 0.01 | 0.01 | 57 | 1014.4 |
| 20260508234554 | 62 | 0 | 0.0 | 0.0 | 0.00 | 0.01 | 0.01 | 58 | 1014.5 |
| 20260508234047 | 62 | 0 | 0.0 | 0.0 | 0.00 | 0.01 | 0.01 | 54 | 1014.3 |
| 20260508233546 | 63 | 0 | 0.0 | 0.0 | 0.00 | 0.01 | 0.01 | 53 | 1014.5 |
| 20260508233055 | 63 | 0 | 0.0 | 0.0 | 0.00 | 0.01 | 0.01 | 56 | 1014.5 |
| 20260508232546 | 64 | 0 | 0.0 | 0.0 | 0.00 | 0.01 | 0.01 | 49 | 1014.5 |
| 20260508232047 | 65 | 0 | 0.0 | 0.0 | 0.00 | 0.01 | 0.01 | 47 | 1014.6 |
| 20260508231550 | 65 | 0 | 0.0 | 1.0 | 0.00 | 0.01 | 0.01 | 45 | 1014.6 |
| 20260508231046 | 66 | 129 | 0.0 | 4.0 | 0.00 | 0.01 | 0.01 | 46 | 1014.5 |
| 20260508230547 | 66 | 0 | 0.0 | 4.0 | 0.00 | 0.01 | 0.01 | 40 | 1014.6 |
| 20260508230049 | 66 | 254 | 1.0 | 4.0 | 0.00 | 0.01 | 0.01 | 40 | 1014.4 |
| 20260508225549 | 67 | 123 | 0.0 | 3.0 | 0.00 | 0.01 | 0.01 | 37 | 1014.6 |
| 20260508225045 | 68 | 113 | 0.0 | 4.0 | 0.00 | 0.01 | 0.01 | 37 | 1014.5 |
| 20260508224548 | 69 | 0 | 0.0 | 4.0 | 0.00 | 0.01 | 0.01 | 34 | 1014.5 |
| 20260508224047 | 69 | 95 | 2.0 | 4.0 | 0.00 | 0.01 | 0.01 | 34 | 1014.4 |
| 20260508223548 | 69 | 111 | 1.0 | 4.0 | 0.00 | 0.01 | 0.01 | 33 | 1014.4 |
| 20260508223051 | 68 | 0 | 0.0 | 6.0 | 0.00 | 0.01 | 0.01 | 34 | 1014.5 |
| 20260508222547 | 68 | 84 | 1.0 | 6.0 | 0.00 | 0.01 | 0.01 | 34 | 1014.5 |
| 20260508222046 | 68 | 0 | 0.0 | 3.0 | 0.00 | 0.01 | 0.01 | 34 | 1014.6 |
| 20260508221553 | 68 | 0 | 1.0 | 3.0 | 0.00 | 0.01 | 0.01 | 33 | 1014.5 |
| 20260508221046 | 69 | 105 | 1.0 | 6.0 | 0.00 | 0.01 | 0.01 | 32 | 1014.3 |
| 20260508220547 | 68 | 51 | 1.0 | 6.0 | 0.00 | 0.01 | 0.01 | 32 | 1014.3 |
| 20260508220051 | 68 | 292 | 2.0 | 6.0 | 0.00 | 0.01 | 0.01 | 32 | 1014.1 |
| 20260508215547 | 69 | 84 | 2.0 | 7.0 | 0.00 | 0.01 | 0.01 | 37 | 1014.2 |
| 20260508215047 | 69 | 103 | 2.0 | 7.0 | 0.00 | 0.01 | 0.01 | 35 | 1014.2 |
| 20260508214551 | 70 | 48 | 2.0 | 8.0 | 0.00 | 0.01 | 0.01 | 34 | 1014.4 |
| 20260508214046 | 69 | 38 | 3.0 | 8.0 | 0.00 | 0.01 | 0.01 | 35 | 1014.4 |
| 20260508213545 | 70 | 59 | 2.0 | 6.0 | 0.00 | 0.01 | 0.01 | 34 | 1014.4 |
| 20260508213046 | 70 | 216 | 2.0 | 7.0 | 0.00 | 0.01 | 0.01 | 37 | 1014.5 |
| 20260508212547 | 70 | 105 | 2.0 | 10.0 | 0.00 | 0.01 | 0.01 | 37 | 1014.5 |
| 20260508212046 | 69 | 310 | 3.0 | 10.0 | 0.00 | 0.01 | 0.01 | 36 | 1014.5 |
| 20260508211550 | 71 | 80 | 2.0 | 6.0 | 0.00 | 0.01 | 0.01 | 39 | 1014.4 |
| 20260508211045 | 71 | 110 | 2.0 | 6.0 | 0.00 | 0.01 | 0.01 | 36 | 1014.3 |
| 20260508210547 | 70 | 108 | 1.0 | 6.0 | 0.00 | 0.01 | 0.01 | 35 | 1014.4 |
| 20260508210047 | 70 | 103 | 1.0 | 4.0 | 0.00 | 0.01 | 0.01 | 38 | 1014.5 |
| 20260508205544 | 70 | 96 | 1.0 | 7.0 | 0.00 | 0.18 | 0.01 | 37 | 1014.5 |
| 20260508205045 | 69 | 304 | 1.0 | 8.0 | 0.00 | 0.18 | 0.01 | 35 | 1014.6 |
| 20260508204552 | 69 | 91 | 3.0 | 8.0 | 0.00 | 0.18 | 0.01 | 36 | 1014.6 |
| 20260508204049 | 70 | 323 | 1.0 | 8.0 | 0.00 | 0.18 | 0.01 | 37 | 1014.6 |
| 20260508203546 | 69 | 119 | 3.0 | 9.0 | 0.00 | 0.18 | 0.01 | 35 | 1014.6 |
| 20260508203105 | 70 | 69 | 2.0 | 9.0 | 0.00 | 0.18 | 0.01 | 36 | 1014.9 |
| 20260508202548 | 70 | 153 | 1.0 | 5.0 | 0.00 | 0.18 | 0.01 | 38 | 1015.1 |
| 20260508202046 | 70 | 0 | 0.0 | 5.0 | 0.00 | 0.18 | 0.01 | 37 | 1015.1 |
| 20260508201600 | 70 | 80 | 1.0 | 7.0 | 0.00 | 0.18 | 0.01 | 37 | 1015.2 |
| 20260508201047 | 70 | 14 | 2.0 | 7.0 | 0.00 | 0.18 | 0.01 | 38 | 1015.1 |
| 20260508200545 | 71 | 51 | 1.0 | 10.0 | 0.00 | 0.18 | 0.01 | 36 | 1015.1 |
| 20260508200056 | 69 | 285 | 1.0 | 10.0 | 0.00 | 0.18 | 0.01 | 38 | 1015.1 |
| 20260508195547 | 70 | 55 | 3.0 | 10.0 | 0.00 | 0.49 | 0.01 | 37 | 1015.2 |
| 20260508195052 | 70 | 107 | 3.0 | 7.0 | 0.00 | 0.49 | 0.01 | 38 | 1015.3 |
| 20260508194556 | 70 | 81 | 2.0 | 9.0 | 0.00 | 0.49 | 0.01 | 37 | 1015.2 |
| 20260508194047 | 70 | 294 | 1.0 | 9.0 | 0.00 | 0.49 | 0.01 | 39 | 1015.2 |
| 20260508193548 | 70 | 72 | 3.0 | 7.0 | 0.00 | 0.49 | 0.01 | 38 | 1015.3 |
| 20260508193056 | 69 | 18 | 2.0 | 4.0 | 0.00 | 0.49 | 0.01 | 36 | 1015.4 |
| 20260508192550 | 69 | 221 | 1.0 | 7.0 | 0.00 | 0.49 | 0.01 | 35 | 1015.5 |
| 20260508192048 | 70 | 205 | 2.0 | 9.0 | 0.00 | 0.49 | 0.01 | 34 | 1015.6 |
| 20260508191555 | 70 | 206 | 1.0 | 9.0 | 0.00 | 0.49 | 0.01 | 41 | 1015.8 |
| 20260508191045 | 69 | 105 | 3.0 | 6.0 | 0.00 | 0.49 | 0.01 | 36 | 1015.9 |
| 20260508190547 | 69 | 337 | 1.0 | 6.0 | 0.00 | 0.49 | 0.01 | 35 | 1015.8 |
| 20260508190050 | 69 | 152 | 2.0 | 6.0 | 0.00 | 0.49 | 0.01 | 33 | 1015.8 |
| 20260508185550 | 69 | 108 | 2.0 | 5.0 | 0.00 | 0.49 | 0.01 | 37 | 1016.0 |
| 20260508185047 | 69 | 0 | 1.0 | 9.0 | 0.00 | 0.49 | 0.01 | 42 | 1015.9 |
| 20260508184600 | 69 | 194 | 2.0 | 9.0 | 0.00 | 0.49 | 0.01 | 39 | 1016.0 |
| 20260508184048 | 69 | 148 | 3.0 | 9.0 | 0.00 | 0.49 | 0.01 | 40 | 1016.0 |
| 20260508183546 | 69 | 155 | 2.0 | 6.0 | 0.00 | 0.49 | 0.01 | 36 | 1016.0 |
| 20260508183055 | 69 | 38 | 1.0 | 6.0 | 0.00 | 0.49 | 0.01 | 38 | 1016.1 |
| 20260508182547 | 69 | 89 | 2.0 | 6.0 | 0.00 | 0.49 | 0.01 | 36 | 1016.1 |
| 20260508182048 | 69 | 81 | 1.0 | 7.0 | 0.00 | 0.49 | 0.01 | 36 | 1016.3 |
| 20260508181559 | 68 | 108 | 3.0 | 7.0 | 0.00 | 0.49 | 0.01 | 35 | 1016.3 |
| 20260508181047 | 68 | 147 | 1.0 | 6.0 | 0.00 | 0.49 | 0.01 | 34 | 1016.4 |
| 20260508180547 | 68 | 107 | 2.0 | 7.0 | 0.00 | 0.49 | 0.01 | 35 | 1016.6 |
| 20260508180053 | 68 | 157 | 2.0 | 7.0 | 0.00 | 0.49 | 0.01 | 35 | 1016.6 |
| 20260508175547 | 68 | 106 | 3.0 | 6.0 | 0.00 | 0.49 | 0.01 | 35 | 1016.7 |
| 20260508175045 | 68 | 299 | 2.0 | 5.0 | 0.00 | 0.49 | 0.01 | 32 | 1016.8 |
| 20260508174554 | 68 | 101 | 1.0 | 6.0 | 0.00 | 0.49 | 0.01 | 34 | 1016.8 |
| 20260508174049 | 67 | 90 | 3.0 | 10.0 | 0.00 | 0.49 | 0.01 | 35 | 1016.9 |
| 20260508173546 | 67 | 132 | 2.0 | 10.0 | 0.00 | 0.49 | 0.01 | 34 | 1017.0 |
| 20260508173051 | 67 | 165 | 3.0 | 9.0 | 0.00 | 0.49 | 0.01 | 34 | 1017.0 |
| 20260508172546 | 67 | 107 | 3.0 | 9.0 | 0.00 | 0.49 | 0.01 | 36 | 1017.0 |
| 20260508172045 | 66 | 175 | 2.0 | 7.0 | 0.00 | 0.49 | 0.01 | 37 | 1017.1 |
| 20260508171551 | 66 | 92 | 1.0 | 5.0 | 0.00 | 0.49 | 0.01 | 36 | 1017.1 |
| 20260508171045 | 66 | 261 | 2.0 | 4.0 | 0.00 | 0.49 | 0.01 | 34 | 1017.2 |
| 20260508170548 | 66 | 173 | 1.0 | 5.0 | 0.00 | 0.49 | 0.01 | 32 | 1017.1 |
| 20260508170049 | 66 | 171 | 3.0 | 7.0 | 0.00 | 0.49 | 0.01 | 32 | 1017.1 |
| 20260508165546 | 66 | 98 | 2.0 | 7.0 | 0.00 | 0.49 | 0.01 | 36 | 1017.2 |
| 20260508165048 | 65 | 204 | 2.0 | 6.0 | 0.00 | 0.49 | 0.01 | 33 | 1017.3 |
| 20260508164553 | 66 | 96 | 2.0 | 8.0 | 0.00 | 0.49 | 0.01 | 34 | 1017.4 |
| 20260508164048 | 65 | 243 | 3.0 | 8.0 | 0.00 | 0.49 | 0.01 | 34 | 1017.5 |
| 20260508163547 | 65 | 57 | 2.0 | 6.0 | 0.00 | 0.49 | 0.01 | 35 | 1017.6 |
| 20260508163054 | 66 | 267 | 1.0 | 7.0 | 0.00 | 0.49 | 0.01 | 35 | 1017.8 |
| 20260508162547 | 66 | 122 | 2.0 | 7.0 | 0.00 | 0.49 | 0.01 | 37 | 1017.9 |
| 20260508162049 | 66 | 184 | 1.0 | 5.0 | 0.00 | 0.49 | 0.01 | 39 | 1017.9 |
| 20260508161555 | 65 | 0 | 1.0 | 6.0 | 0.00 | 0.49 | 0.01 | 39 | 1018.0 |
| 20260508161047 | 65 | 229 | 1.0 | 7.0 | 0.00 | 0.49 | 0.01 | 40 | 1018.1 |
| 20260508160549 | 65 | 69 | 3.0 | 7.0 | 0.00 | 0.49 | 0.01 | 36 | 1018.1 |
| 20260508160058 | 65 | 226 | 1.0 | 4.0 | 0.00 | 0.49 | 0.01 | 39 | 1018.2 |
| 20260508155545 | 64 | 86 | 2.0 | 8.0 | 0.00 | 0.49 | 0.01 | 37 | 1018.2 |
| 20260508155045 | 65 | 80 | 3.0 | 8.0 | 0.00 | 0.49 | 0.01 | 42 | 1018.2 |
| 20260508154549 | 65 | 89 | 1.0 | 4.0 | 0.00 | 0.49 | 0.01 | 39 | 1018.3 |
| 20260508154045 | 64 | 153 | 1.0 | 3.0 | 0.00 | 0.49 | 0.01 | 42 | 1018.4 |
| 20260508153545 | 63 | 163 | 1.0 | 3.0 | 0.00 | 0.49 | 0.01 | 43 | 1018.5 |
| 20260508153056 | 63 | 92 | 1.0 | 5.0 | 0.00 | 0.49 | 0.01 | 43 | 1018.5 |
| 20260508152547 | 63 | 202 | 1.0 | 5.0 | 0.00 | 0.49 | 0.01 | 49 | 1018.5 |
| 20260508152048 | 63 | 309 | 1.0 | 3.0 | 0.00 | 0.49 | 0.01 | 45 | 1018.5 |
| 20260508151554 | 63 | 0 | 1.0 | 3.0 | 0.00 | 0.49 | 0.01 | 45 | 1018.7 |
| 20260508151046 | 62 | 327 | 1.0 | 6.0 | 0.00 | 0.49 | 0.01 | 44 | 1018.6 |
| 20260508150545 | 62 | 265 | 2.0 | 6.0 | 0.00 | 0.49 | 0.01 | 42 | 1018.6 |
| 20260508150051 | 62 | 171 | 1.0 | 3.0 | 0.00 | 0.49 | 0.01 | 47 | 1018.7 |
| 20260508145547 | 62 | 194 | 1.0 | 4.0 | 0.00 | 0.51 | 0.01 | 46 | 1018.7 |
| 20260508145047 | 62 | 147 | 0.0 | 4.0 | 0.00 | 0.51 | 0.01 | 47 | 1018.6 |
| 20260508144555 | 61 | 342 | 2.0 | 4.0 | 0.00 | 0.51 | 0.01 | 48 | 1018.7 |
| 20260508144047 | 61 | 128 | 0.0 | 4.0 | 0.00 | 0.51 | 0.01 | 52 | 1018.6 |
| 20260508143547 | 60 | 253 | 1.0 | 8.0 | 0.00 | 0.51 | 0.01 | 55 | 1018.6 |
| 20260508143101 | 60 | 189 | 0.0 | 8.0 | 0.00 | 0.51 | 0.01 | 57 | 1018.5 |
| 20260508142546 | 60 | 113 | 1.0 | 7.0 | 0.00 | 0.51 | 0.01 | 60 | 1018.5 |
| 20260508142047 | 60 | 86 | 0.0 | 4.0 | 0.00 | 0.51 | 0.01 | 61 | 1018.5 |
| 20260508141612 | 60 | 153 | 1.0 | 6.0 | 0.00 | 0.51 | 0.01 | 59 | 1018.5 |
| 20260508141048 | 59 | 277 | 1.0 | 6.0 | 0.00 | 0.51 | 0.01 | 58 | 1018.5 |
| 20260508140548 | 59 | 0 | 0.0 | 5.0 | 0.00 | 0.51 | 0.01 | 62 | 1018.4 |
| 20260508140054 | 58 | 0 | 1.0 | 5.0 | 0.00 | 0.51 | 0.01 | 70 | 1018.4 |
| 20260508135546 | 58 | 0 | 0.0 | 4.0 | 0.00 | 0.58 | 0.01 | 72 | 1018.4 |
| 20260508135045 | 57 | 113 | 1.0 | 4.0 | 0.00 | 0.58 | 0.01 | 66 | 1018.3 |
| 20260508134617 | 56 | 145 | 1.0 | 4.0 | 0.00 | 0.58 | 0.01 | 76 | 1018.3 |
| 20260508134045 | 56 | 0 | 1.0 | 4.0 | 0.00 | 0.58 | 0.01 | 69 | 1018.3 |
| 20260508133546 | 56 | 0 | 0.0 | 4.0 | 0.00 | 0.58 | 0.01 | 78 | 1018.3 |
| 20260508133101 | 55 | 133 | 0.0 | 2.0 | 0.00 | 0.58 | 0.01 | 75 | 1018.2 |
| 20260508132546 | 55 | 0 | 0.0 | 3.0 | 0.00 | 0.58 | 0.01 | 81 | 1018.2 |
| 20260508132048 | 54 | 0 | 0.0 | 3.0 | 0.00 | 0.58 | 0.01 | 82 | 1018.3 |
| 20260508131555 | 54 | 0 | 0.0 | 1.0 | 0.00 | 0.58 | 0.01 | 89 | 1018.1 |
| 20260508131045 | 54 | 0 | 0.0 | 1.0 | 0.00 | 0.58 | 0.01 | 92 | 1018.1 |
| 20260508130547 | 53 | 180 | 0.0 | 1.0 | 0.00 | 0.58 | 0.01 | 90 | 1018.1 |
| 20260508130053 | 54 | 0 | 0.0 | 1.0 | 0.00 | 0.58 | 0.01 | 92 | 1018.1 |
| 20260508125548 | 53 | 0 | 0.0 | 1.0 | 0.00 | 0.71 | 0.01 | 92 | 1018.1 |
| 20260508125048 | 53 | 0 | 0.0 | 1.0 | 0.00 | 0.71 | 0.01 | 94 | 1018.0 |
| 20260508124601 | 52 | 0 | 0.0 | 1.0 | 0.00 | 0.71 | 0.01 | 94 | 1018.0 |
| 20260508124046 | 52 | 139 | 0.0 | 0.0 | 0.00 | 0.71 | 0.01 | 94 | 1018.0 |
| 20260508123548 | 52 | 0 | 0.0 | 0.0 | 0.00 | 0.71 | 0.01 | 94 | 1018.0 |
| 20260508123055 | 52 | 0 | 0.0 | 0.0 | 0.00 | 0.71 | 0.01 | 95 | 1017.9 |
| 20260508122547 | 51 | 0 | 0.0 | 0.0 | 0.00 | 0.71 | 0.01 | 94 | 1017.9 |
| 20260508122047 | 52 | 0 | 0.0 | 0.0 | 0.00 | 0.71 | 0.01 | 96 | 1017.9 |
| 20260508121549 | 51 | 0 | 0.0 | 0.0 | 0.00 | 0.71 | 0.01 | 96 | 1017.9 |
| 20260508121044 | 51 | 0 | 0.0 | 0.0 | 0.00 | 0.71 | 0.01 | 96 | 1017.8 |
| 20260508120550 | 51 | 0 | 0.0 | 0.0 | 0.00 | 0.71 | 0.01 | 96 | 1017.7 |
| 20260508120053 | 50 | 0 | 0.0 | 0.0 | 0.00 | 0.71 | 0.01 | 96 | 1017.6 |
| 20260508115547 | 48 | 0 | 0.0 | 0.0 | 0.00 | 0.73 | 0.01 | 95 | 1017.6 |
| 20260508115046 | 48 | 0 | 0.0 | 0.0 | 0.00 | 0.73 | 0.01 | 95 | 1017.6 |
| 20260508114552 | 48 | 0 | 0.0 | 0.0 | 0.00 | 0.73 | 0.01 | 96 | 1017.5 |
| 20260508114046 | 47 | 0 | 0.0 | 0.0 | 0.00 | 0.73 | 0.01 | 96 | 1017.4 |
| 20260508113548 | 47 | 0 | 0.0 | 0.0 | 0.00 | 0.73 | 0.01 | 97 | 1017.4 |
| 20260508113104 | 47 | 0 | 0.0 | 0.0 | 0.00 | 0.73 | 0.01 | 97 | 1017.3 |
| 20260508112546 | 45 | 0 | 0.0 | 0.0 | 0.00 | 0.73 | 0.01 | 97 | 1017.3 |
| 20260508112045 | 43 | 0 | 0.0 | 0.0 | 0.00 | 0.73 | 0.01 | 97 | 1017.2 |
| 20260508111601 | 42 | 0 | 0.0 | 0.0 | 0.00 | 0.73 | 0.01 | 97 | 1017.1 |
| 20260508111046 | 41 | 0 | 0.0 | 0.0 | 0.00 | 0.73 | 0.01 | 97 | 1017.0 |
| 20260508110548 | 41 | 0 | 0.0 | 0.0 | 0.00 | 0.73 | 0.01 | 97 | 1016.8 |
| 20260508110056 | 41 | 0 | 0.0 | 0.0 | 0.00 | 0.73 | 0.01 | 97 | 1016.7 |
| 20260508105547 | 41 | 0 | 0.0 | 0.0 | 0.00 | 0.73 | 0.01 | 97 | 1016.7 |
| 20260508105047 | 41 | 0 | 0.0 | 0.0 | 0.00 | 0.73 | 0.01 | 97 | 1016.7 |
| 20260508104552 | 41 | 0 | 0.0 | 0.0 | 0.00 | 0.73 | 0.01 | 97 | 1016.6 |
| 20260508104045 | 41 | 0 | 0.0 | 0.0 | 0.00 | 0.73 | 0.01 | 97 | 1016.6 |
| 20260508103547 | 41 | 0 | 0.0 | 0.0 | 0.01 | 0.73 | 0.01 | 97 | 1016.4 |
| 20260508103051 | 41 | 0 | 0.0 | 0.0 | 0.01 | 0.73 | 0.01 | 97 | 1016.4 |
| 20260508102548 | 41 | 0 | 0.0 | 0.0 | 0.01 | 0.73 | 0.01 | 97 | 1016.4 |
| 20260508102047 | 41 | 0 | 0.0 | 0.0 | 0.01 | 0.73 | 0.01 | 97 | 1016.3 |
| 20260508101557 | 41 | 0 | 0.0 | 0.0 | 0.01 | 0.73 | 0.01 | 97 | 1016.3 |
| 20260508101046 | 42 | 0 | 0.0 | 0.0 | 0.01 | 0.73 | 0.01 | 97 | 1016.3 |
| 20260508100548 | 41 | 0 | 0.0 | 0.0 | 0.01 | 0.73 | 0.01 | 97 | 1016.2 |
| 20260508100056 | 41 | 0 | 0.0 | 0.0 | 0.01 | 0.73 | 0.01 | 97 | 1016.1 |
| 20260508095546 | 42 | 0 | 0.0 | 0.0 | 0.01 | 0.74 | 0.01 | 97 | 1016.1 |
| 20260508095047 | 42 | 0 | 0.0 | 0.0 | 0.01 | 0.74 | 0.01 | 97 | 1016.0 |
| 20260508094555 | 42 | 0 | 0.0 | 0.0 | 0.01 | 0.74 | 0.01 | 97 | 1015.8 |
| 20260508094048 | 42 | 0 | 0.0 | 0.0 | 0.00 | 0.73 | 0.00 | 97 | 1015.7 |
| 20260508093548 | 42 | 0 | 0.0 | 0.0 | 0.00 | 0.73 | 0.00 | 97 | 1015.8 |
| 20260508093057 | 42 | 0 | 0.0 | 0.0 | 0.00 | 0.73 | 0.00 | 97 | 1015.8 |
| 20260508092547 | 42 | 0 | 0.0 | 0.0 | 0.00 | 0.73 | 0.00 | 97 | 1015.7 |
| 20260508092047 | 42 | 0 | 0.0 | 0.0 | 0.00 | 0.73 | 0.00 | 97 | 1015.6 |
| 20260508091553 | 42 | 0 | 0.0 | 0.0 | 0.00 | 0.73 | 0.00 | 97 | 1015.8 |
| 20260508091050 | 42 | 0 | 0.0 | 0.0 | 0.00 | 0.73 | 0.00 | 96 | 1015.8 |
| 20260508090546 | 43 | 0 | 0.0 | 0.0 | 0.00 | 0.73 | 0.00 | 97 | 1015.7 |
| 20260508090059 | 43 | 0 | 0.0 | 0.0 | 0.00 | 0.73 | 0.00 | 97 | 1015.5 |
| 20260508085548 | 43 | 0 | 0.0 | 0.0 | 0.00 | 0.73 | 0.00 | 97 | 1015.7 |
| 20260508085047 | 43 | 0 | 0.0 | 0.0 | 0.00 | 0.73 | 0.00 | 97 | 1015.5 |
| 20260508084553 | 43 | 0 | 0.0 | 0.0 | 0.00 | 0.73 | 0.00 | 97 | 1015.5 |
| 20260508084048 | 43 | 0 | 0.0 | 0.0 | 0.00 | 0.73 | 0.00 | 96 | 1015.3 |
| 20260508083547 | 43 | 0 | 0.0 | 0.0 | 0.00 | 0.73 | 0.00 | 96 | 1015.3 |
| 20260508083109 | 43 | 0 | 0.0 | 0.0 | 0.00 | 0.73 | 0.00 | 97 | 1015.3 |
| 20260508082552 | 44 | 0 | 0.0 | 0.0 | 0.00 | 0.73 | 0.00 | 97 | 1015.2 |
| 20260508082047 | 44 | 0 | 0.0 | 0.0 | 0.00 | 0.73 | 0.00 | 97 | 1015.1 |
| 20260508081551 | 44 | 0 | 0.0 | 0.0 | 0.00 | 0.73 | 0.00 | 97 | 1015.1 |
| 20260508081050 | 44 | 0 | 0.0 | 0.0 | 0.00 | 0.73 | 0.00 | 97 | 1015.1 |
| 20260508080548 | 44 | 0 | 0.0 | 0.0 | 0.00 | 0.73 | 0.00 | 97 | 1015.0 |
| 20260508080053 | 44 | 0 | 0.0 | 0.0 | 0.00 | 0.73 | 0.00 | 97 | 1015.1 |
| 20260508075548 | 44 | 0 | 0.0 | 0.0 | 0.00 | 0.75 | 0.00 | 97 | 1015.1 |
| 20260508075047 | 44 | 0 | 0.0 | 0.0 | 0.00 | 0.75 | 0.00 | 97 | 1015.1 |
| 20260508074555 | 44 | 0 | 0.0 | 0.0 | 0.00 | 0.75 | 0.00 | 97 | 1015.1 |
| 20260508074047 | 44 | 0 | 0.0 | 0.0 | 0.00 | 0.75 | 0.00 | 97 | 1015.1 |
| 20260508073547 | 44 | 0 | 0.0 | 0.0 | 0.00 | 0.75 | 0.00 | 96 | 1015.0 |
| 20260508073055 | 44 | 0 | 0.0 | 0.0 | 0.00 | 0.75 | 0.00 | 96 | 1015.0 |
| 20260508072546 | 45 | 0 | 0.0 | 0.0 | 0.00 | 0.75 | 0.00 | 97 | 1014.9 |
| 20260508072045 | 45 | 0 | 0.0 | 0.0 | 0.00 | 0.75 | 0.00 | 97 | 1014.8 |
| 20260508071555 | 45 | 0 | 0.0 | 0.0 | 0.00 | 0.75 | 0.00 | 97 | 1014.8 |
| 20260508071048 | 45 | 0 | 0.0 | 0.0 | 0.00 | 0.75 | 0.00 | 97 | 1014.6 |
| 20260508070549 | 45 | 0 | 0.0 | 0.0 | 0.00 | 0.75 | 0.00 | 97 | 1014.6 |
| 20260508070054 | 45 | 0 | 0.0 | 0.0 | 0.00 | 0.75 | 0.00 | 96 | 1014.7 |
| 20260508065546 | 45 | 0 | 0.0 | 0.0 | 0.00 | 0.75 | 0.00 | 97 | 1014.6 |
| 20260508065046 | 45 | 0 | 0.0 | 0.0 | 0.00 | 0.75 | 0.00 | 97 | 1014.6 |
| 20260508064556 | 45 | 0 | 0.0 | 0.0 | 0.00 | 0.75 | 0.00 | 96 | 1014.6 |
| 20260508064047 | 45 | 0 | 0.0 | 0.0 | 0.00 | 0.75 | 0.00 | 96 | 1014.6 |
| 20260508063547 | 46 | 0 | 0.0 | 0.0 | 0.00 | 0.75 | 0.00 | 96 | 1014.6 |
| 20260508063049 | 46 | 0 | 0.0 | 0.0 | 0.00 | 0.75 | 0.00 | 97 | 1014.6 |
| 20260508062547 | 46 | 0 | 0.0 | 0.0 | 0.00 | 0.75 | 0.00 | 97 | 1014.6 |
| 20260508062047 | 46 | 0 | 0.0 | 0.0 | 0.00 | 0.75 | 0.00 | 96 | 1014.7 |
| 20260508061552 | 46 | 0 | 0.0 | 0.0 | 0.00 | 0.75 | 0.00 | 96 | 1014.6 |
| 20260508061050 | 46 | 0 | 0.0 | 0.0 | 0.00 | 0.75 | 0.00 | 96 | 1014.7 |
| 20260508060546 | 46 | 0 | 0.0 | 0.0 | 0.00 | 0.75 | 0.00 | 96 | 1014.6 |
| 20260508060053 | 46 | 0 | 0.0 | 0.0 | 0.00 | 0.75 | 0.00 | 96 | 1014.6 |
| 20260508055547 | 46 | 0 | 0.0 | 0.0 | 0.00 | 0.81 | 0.00 | 96 | 1014.5 |
| 20260508055047 | 46 | 0 | 0.0 | 0.0 | 0.00 | 0.81 | 0.00 | 96 | 1014.5 |
| 20260508054555 | 46 | 0 | 0.0 | 0.0 | 0.00 | 0.81 | 0.00 | 96 | 1014.6 |
| 20260508054049 | 46 | 0 | 0.0 | 0.0 | 0.00 | 0.81 | 0.00 | 96 | 1014.5 |
| 20260508053548 | 46 | 0 | 0.0 | 0.0 | 0.00 | 0.81 | 0.00 | 96 | 1014.6 |
| 20260508053052 | 46 | 0 | 0.0 | 0.0 | 0.00 | 0.81 | 0.00 | 96 | 1014.6 |
| 20260508052548 | 47 | 0 | 0.0 | 0.0 | 0.00 | 0.81 | 0.00 | 96 | 1014.5 |
| 20260508052045 | 47 | 0 | 0.0 | 0.0 | 0.00 | 0.81 | 0.00 | 96 | 1014.5 |
| 20260508051554 | 47 | 0 | 0.0 | 0.0 | 0.00 | 0.81 | 0.00 | 96 | 1014.5 |
| 20260508051049 | 47 | 0 | 0.0 | 0.0 | 0.00 | 0.81 | 0.00 | 96 | 1014.5 |
| 20260508050547 | 47 | 0 | 0.0 | 0.0 | 0.00 | 0.81 | 0.00 | 96 | 1014.5 |
| 20260508050050 | 47 | 0 | 0.0 | 0.0 | 0.00 | 0.81 | 0.00 | 96 | 1014.4 |
| 20260508045547 | 47 | 0 | 0.0 | 0.0 | 0.00 | 0.81 | 0.00 | 96 | 1014.4 |
| 20260508045049 | 47 | 0 | 0.0 | 0.0 | 0.00 | 0.81 | 0.00 | 96 | 1014.5 |
| 20260508044558 | 47 | 0 | 0.0 | 0.0 | 0.00 | 0.81 | 0.00 | 96 | 1014.4 |
| 20260508044048 | 47 | 0 | 0.0 | 0.0 | 0.00 | 0.81 | 0.00 | 96 | 1014.3 |
| 20260508043545 | 47 | 0 | 0.0 | 0.0 | 0.00 | 0.81 | 0.00 | 96 | 1014.3 |
| 20260508043106 | 47 | 0 | 0.0 | 0.0 | 0.00 | 0.81 | 0.00 | 96 | 1014.4 |
| 20260508042546 | 48 | 0 | 0.0 | 0.0 | 0.00 | 0.81 | 0.00 | 96 | 1014.3 |
| 20260508042045 | 48 | 0 | 0.0 | 0.0 | 0.00 | 0.81 | 0.00 | 96 | 1014.2 |
| 20260508041559 | 48 | 0 | 0.0 | 0.0 | 0.00 | 0.81 | 0.00 | 96 | 1014.2 |
| 20260508041047 | 48 | 0 | 0.0 | 0.0 | 0.00 | 0.81 | 0.00 | 96 | 1014.1 |
| 20260508040549 | 48 | 0 | 0.0 | 0.0 | 0.00 | 0.81 | 0.00 | 96 | 1014.2 |
| 20260508040056 | 48 | 0 | 0.0 | 0.0 | 0.00 | 0.81 | 0.00 | 96 | 1014.1 |
| 20260508035547 | 48 | 0 | 0.0 | 0.0 | 0.00 | 0.87 | 0.81 | 96 | 1014.2 |
| 20260508035048 | 48 | 0 | 0.0 | 0.0 | 0.00 | 0.87 | 0.81 | 96 | 1014.1 |
| 20260508034553 | 48 | 0 | 0.0 | 0.0 | 0.00 | 0.87 | 0.81 | 96 | 1014.1 |
| 20260508034046 | 48 | 0 | 0.0 | 0.0 | 0.00 | 0.87 | 0.81 | 96 | 1014.0 |
| 20260508033546 | 48 | 0 | 0.0 | 0.0 | 0.00 | 0.87 | 0.81 | 95 | 1014.0 |
| 20260508033051 | 49 | 0 | 0.0 | 0.0 | 0.00 | 0.87 | 0.81 | 95 | 1014.1 |
| 20260508032549 | 49 | 0 | 0.0 | 0.0 | 0.00 | 0.87 | 0.81 | 95 | 1014.1 |
| 20260508032050 | 49 | 0 | 0.0 | 0.0 | 0.00 | 0.87 | 0.81 | 95 | 1014.1 |
| 20260508031551 | 49 | 0 | 0.0 | 0.0 | 0.00 | 0.87 | 0.81 | 95 | 1013.9 |
| 20260508031047 | 49 | 0 | 0.0 | 0.0 | 0.00 | 0.87 | 0.81 | 95 | 1013.7 |
| 20260508030547 | 49 | 0 | 0.0 | 0.0 | 0.00 | 0.87 | 0.81 | 95 | 1013.9 |
| 20260508030049 | 49 | 0 | 0.0 | 0.0 | 0.00 | 0.87 | 0.81 | 95 | 1013.6 |
| 20260508025547 | 50 | 0 | 0.0 | 0.0 | 0.00 | 0.89 | 0.81 | 95 | 1013.9 |
| 20260508025048 | 50 | 0 | 0.0 | 0.0 | 0.00 | 0.89 | 0.81 | 95 | 1013.8 |
| 20260508024549 | 50 | 0 | 0.0 | 0.0 | 0.00 | 0.89 | 0.81 | 95 | 1013.8 |
| 20260508024047 | 50 | 0 | 0.0 | 0.0 | 0.00 | 0.89 | 0.81 | 95 | 1013.7 |
| 20260508023551 | 50 | 0 | 0.0 | 0.0 | 0.00 | 0.89 | 0.81 | 95 | 1013.7 |
| 20260508023048 | 50 | 0 | 0.0 | 0.0 | 0.00 | 0.89 | 0.81 | 95 | 1013.6 |
| 20260508022547 | 50 | 0 | 0.0 | 0.0 | 0.00 | 0.89 | 0.81 | 95 | 1013.6 |
| 20260508022048 | 51 | 0 | 0.0 | 0.0 | 0.00 | 0.89 | 0.81 | 95 | 1013.3 |